Flag for Canada Weather past 2 weeks in Sarnia, Ontario, Canada

Now
79 °F

Mostly cloudy.


Feels Like: 81 °F
Forecast: 59 / 73 °F
Wind: 6 mph from Southwest

Location: Sarnia Airport

Current Time: Jul 23, 2014 at 2:32:09 AM

Latest Report: Jul 23, 2014 at 1:00 AM


Visibility: 9 mi

Pressure: 29.89 "Hg

Humidity: 70%

Dew point: 68 °F

Location of SarniaLocation

Historic Weather in Sarnia — Graph

°F

Sarnia temperature yesterday

Maximum temperature yesterday: 84 °F (at 1:00 PM)
Minimum temperature yesterday: 63 °F (at 3:00 AM)
Average temperature yesterday: 72 °F

Past Weeks' High & Low Weather Summary

 TemperatureHumidityPressure
High84 °F (Jul 22, 1:00 PM)100% (Jul 11, 5:00 AM)30.26 "Hg (Jul 11, 5:00 AM)
Low54 °F (Jul 11, 5:00 AM)44% (Jul 11, 7:00 PM)29.55 "Hg (Jul 8, 4:00 PM)
Average67 °F75%29.98 "Hg
* Reported Jul 8 1:00 AM — Jul 23 1:00 AM, Sarnia, Weather by CustomWeather, © 2014

Note: Actual official high and low records may vary slightly from our data, if they occured in-between our weather recording intervals... More about our weather records

Advertising

Sarnia weather history for July 8, 2014

 ConditionsComfort  
Time TempWeatherWind HumidityBarometerVisibility
1:00 AM
Jul 8
70 °FClear.3 mph73%29.70 "Hg9 mi
2:00 AM66 °FPassing clouds.6 mph83%29.67 "Hg9 mi
3:00 AM66 °FClear.7 mph78%29.64 "Hg9 mi
4:00 AM64 °FPassing clouds.7 mph83%29.65 "Hg9 mi
5:00 AM64 °FPassing clouds.7 mph88%29.64 "Hg9 mi
6:00 AM66 °FPassing clouds.7 mph88%29.64 "Hg9 mi
7:00 AM68 °FMore clouds than sun.8 mph88%29.62 "Hg9 mi
8:00 AM70 °FFog.7 mph94%29.60 "Hg6 mi
8:52 AM72 °FFog.13 mph88%29.60 "Hg6 mi
9:00 AM72 °FFog.13 mph88%29.60 "Hg6 mi
9:54 AM72 °FFog.14 mph94%29.59 "Hg5 mi
10:00 AM72 °FFog.10 mph94%29.58 "Hg5 mi
11:00 AM72 °FLight rain. Fog.8 mph94%29.55 "Hg3 mi
11:59 AM66 °FStrong thunderstorms. Fog.24 mph88%29.59 "Hg2 mi
12:03 PM64 °FStrong thunderstorms. Fog.15 mph88%29.59 "Hg2 mi
1:00 PM64 °FLight rain. More clouds than sun.2 mph88%29.58 "Hg9 mi
2:04 PM66 °FBroken clouds.3 mph88%29.56 "Hg9 mi
3:00 PM70 °FOvercast.10 mph78%29.56 "Hg9 mi
4:00 PM73 °FBroken clouds.9 mph78%29.55 "Hg9 mi
5:00 PM77 °FScattered clouds.16 mph61%29.57 "Hg9 mi
6:00 PM77 °FPassing clouds.16 mph57%29.59 "Hg9 mi
7:00 PM73 °FScattered clouds.20 mph57%29.65 "Hg9 mi
8:00 PM72 °FSunny.14 mph61%29.67 "Hg9 mi
9:00 PM70 °FSunny.7 mph64%29.69 "Hg9 mi
10:00 PM68 °FScattered clouds.3 mph69%29.71 "Hg9 mi
11:00 PM66 °FPassing clouds.5 mph78%29.72 "Hg9 mi
Weather by CustomWeather, © 2014

See weather overviewHow to use our weather pages